Regional Weather Roundup
Issued by NWS Midland/Odessa, TX

Skip options and go directly to product.
Home | Oldest Version | Previous Version | Current Version | All | Graphics & Text | Save Text | Print | Product List | Glossary On

Skip product version selection by date and time.   
990
ASUS44 KMAF 270210
RWRMAF
MIDLAND AREA WEATHER ROUNDUP
NATIONAL WEATHER SERVICE MIDLAND TX
900 PM CDT FRI AUG 26 2016

...IN SOUTHWEST TEXAS AND SOUTHEAST NEW MEXICO...

CITY           SKY/WX    TMP DP  RH WIND       PRES   REMARKS
ALPINE         CLOUDY    71  60  67 SE5       30.19R
ANDREWS        NOT AVBL
ARTESIA        CLEAR     77  64  65 S7        30.04S
BIG SPRING     CLOUDY    75  67  76 CALM      30.07R
CARLSBAD       CLEAR     76  64  66 S7        30.03R
DRYDEN           N/A     73  69  87 S8        30.05R
FORT STOCKTON  CLEAR     73  62  68 SE15G22   30.06R
GUAD PASS      CLEAR     64  60  87 NE23      30.19R
HOBBS          CLOUDY    72  66  83 SE9       30.08F
MARFA          CLOUDY   N/A N/A N/A SE5       30.17R
MIDLAND AIRPK  CLOUDY    78  63  59 SE8       30.07R
MIDLAND INTL   CLOUDY    76  65  68 SE8       30.06R
ODESSA         CLOUDY    76  62  62 SE9       30.07R
PECOS          CLOUDY    77  65  66 SE7       30.03R
PRESIDIO       NOT AVBL
SEMINOLE       CLOUDY    71  64  78 CALM      30.09S
SNYDER           N/A     74  66  77 E5        30.06R
WINK           CLOUDY    78  62  57 S8        30.02R
$$
...OTHER STATIONS IN TEXAS...

CITY           SKY/WX    TMP DP  RH WIND       PRES   REMARKS
ABILENE        PTCLDY    81  67  62 N7        30.03R
AMARILLO       CLEAR     74  60  61 S14       30.07R
AUSTIN         PTCLDY    80  74  81 E6        30.01R
BROWNSVILLE    CLEAR     83  74  74 E7        29.92R
CORPUS CHRISTI PTCLDY    84  77  79 E10       29.95R
DALLAS FTW     CLOUDY    79  69  71 E14       30.01R
DEL RIO        CLEAR     84  68  58 E6        29.94R
EL PASO        PTCLDY    84  53  34 S7        30.03R
HOUSTON INT    LGT RAIN  76  73  91 N3        29.99S
LUBBOCK        PTCLDY    73  62  68 SE12      30.07R
SAN ANGELO     CLEAR     74  68  81 CALM      30.02R
SAN ANTONIO    MOCLDY    81  72  74 E13       30.00R
WACO           CLOUDY    76  74  93 SE7       30.02R
WICHITA FALLS  NOT AVBL
$$
...OTHER LOCATIONS IN NEW MEXICO...

CITY           SKY/WX    TMP DP  RH WIND       PRES   REMARKS
ALAMAGORDO     MOCLDY    68  57  68 W10       30.15R
ALBUQUERQUE    MOCLDY    74  46  36 NW6       30.15R
CANNON AFB     CLOUDY    71  62  74 SE12      30.10R
CLOVIS         CLOUDY    64  55  72 E13       30.12R THUNDER
HOLLOMAN AFB   NOT AVBL
ROSWELL        PTCLDY    75  61  61 S7        30.05R
RUIDOSO          N/A     63  50  63 CALM      30.28S
SANTA FE       CLOUDY    68  52  56 CALM      30.20R
TRUTH OR CONSE CLOUDY    75  46  35 NW12      30.11S
TUCUMCARI      CLEAR     70  56  61 N5        30.05F
$$

USA.gov is the U.S. government's official web portal to all federal, state and local government web resources and services.